CW3642 Weather Reports


time (UTC)temp
C
wind
direction
speed
KPH
gust
KPH
rain 1hr
cm
rain 24hr
cm
rain mn
cm
humidity
%
barometer
mb
20260507221329 7 360 8.0 14.5 0.00 0.00 0.00 53 1010.0
20260507220900 8 360 0.0 16.1 0.00 0.00 0.00 52 1010.1
20260507215850 8 360 4.8 9.7 0.00 0.00 0.00 51 1010.1
20260507215350 8 360 4.8 9.7 0.00 0.00 0.00 50 1010.1
20260507214820 8 360 6.4 9.7 0.00 0.00 0.00 49 1010.1
20260507214319 8 360 0.0 9.7 0.00 0.00 0.00 52 1010.1
20260507213820 8 360 0.0 9.7 0.00 0.00 0.00 50 1010.1
20260507213349 8 360 12.9 9.7 0.00 0.00 0.00 49 1010.1
20260507212820 8 360 4.8 9.7 0.00 0.00 0.00 48 1010.2
20260507212319 9 360 3.2 9.7 0.00 0.00 0.00 47 1010.3
20260507211350 9 360 1.6 9.7 0.00 0.00 0.00 53 1010.2
20260507210820 8 360 1.6 9.7 0.00 0.00 0.00 50 1010.2
20260507210320 8 360 1.6 9.7 0.00 0.00 0.00 50 1010.1
20260507205850 8 360 4.8 9.7 0.00 0.00 0.00 51 1010.2
20260507205320 8 360 8.0 9.7 0.00 0.00 0.00 51 1010.3
20260507204819 8 360 12.9 9.7 0.00 0.00 0.00 53 1010.3
20260507204350 8 360 1.6 9.7 0.00 0.00 0.00 54 1010.3
20260507202819 9 360 6.4 9.7 0.00 0.00 0.00 55 1010.3
20260507202320 9 360 4.8 9.7 0.00 0.00 0.00 53 1010.4
20260507201320 9 360 3.2 9.7 0.00 0.00 0.00 51 1010.3
20260507200820 9 360 6.4 9.7 0.00 0.00 0.00 53 1010.4
20260507200320 9 360 0.0 9.7 0.00 0.00 0.00 54 1010.4
20260507195820 10 360 3.2 9.7 0.00 0.00 0.00 51 1010.5
20260507195320 10 360 3.2 9.7 0.00 0.00 0.00 52 1010.4
20260507194819 9 360 3.2 9.7 0.00 0.00 0.00 53 1010.4
20260507194320 9 360 14.5 9.7 0.00 0.00 0.00 51 1010.4
20260507193820 9 192 14.5 9.7 0.00 0.00 0.00 52 1010.4
20260507193319 9 360 8.0 9.7 0.00 0.00 0.00 51 1010.5
20260507192820 9 360 17.7 9.7 0.00 0.00 0.00 51 1010.5
20260507192320 9 360 1.6 9.7 0.00 0.00 0.00 52 1010.5
20260507191820 9 360 8.0 9.7 0.00 0.00 0.00 50 1010.6
20260507191320 10 360 8.0 9.7 0.00 0.00 0.00 51 1010.6
20260507190820 10 360 8.0 9.7 0.00 0.00 0.00 50 1010.7
20260507190320 10 360 3.2 9.7 0.00 0.00 0.00 52 1010.6
20260507185320 9 360 3.2 9.7 0.00 0.00 0.00 51 1010.7
20260507184819 9 360 1.6 9.7 0.00 0.00 0.00 52 1010.7
20260507184320 9 360 1.6 9.7 0.00 0.00 0.00 55 1010.8
20260507183320 9 360 4.8 9.7 0.00 0.00 0.00 53 1010.9
20260507182820 10 360 3.2 9.7 0.00 0.00 0.00 53 1010.9
20260507182320 9 360 3.2 9.7 0.00 0.00 0.00 54 1010.9
20260507181819 10 360 1.6 9.7 0.00 0.00 0.00 51 1010.9
20260507181320 10 360 16.1 9.7 0.00 0.00 0.00 53 1010.9
20260507180820 10 360 6.4 29.0 0.00 0.00 0.00 52 1011.0
20260507175836 9 238 3.2 9.7 0.00 0.00 0.00 53 1011.0
20260507175336 9 360 4.8 9.7 0.00 0.00 0.00 56 1011.0
20260507174836 8 360 3.2 9.7 0.00 0.00 0.00 56 1011.1
20260507174336 8 360 1.6 9.7 0.00 0.00 0.00 56 1011.1
20260507172831 9 360 1.6 0.0 0.00 0.00 0.00 54 1011.3
20260507172331 8 360 0.0 0.0 0.00 0.00 0.00 56 1011.2
20260507171831 8 360 8.0 0.0 0.00 0.00 0.00 57 1011.4
20260507171331 8 360 6.4 0.0 0.00 0.00 0.00 57 1011.4
20260507170331 8 360 4.8 0.0 0.00 0.00 0.00 54 1011.6
20260507164831 8 360 1.6 0.0 0.00 0.00 0.00 57 1011.8
20260507164331 8 360 6.4 0.0 0.00 0.00 0.00 57 1011.9
20260507163831 8 360 4.8 0.0 0.00 0.00 0.00 56 1011.9
20260507163331 8 360 0.0 0.0 0.00 0.00 0.00 59 1011.9
20260507162831 8 360 3.2 0.0 0.00 0.00 0.00 60 1011.9
20260507162331 8 360 4.8 0.0 0.00 0.00 0.00 59 1011.9
20260507160830 8 360 8.0 0.0 0.00 0.00 0.00 56 1012.0
20260507160331 8 360 3.2 0.0 0.00 0.00 0.00 57 1012.1
20260507155831 8 360 1.6 0.0 0.00 0.00 0.00 58 1012.1
20260507154830 7 360 3.2 0.0 0.00 0.00 0.00 58 1012.2
20260507153331 7 360 8.0 0.0 0.00 0.00 0.00 61 1012.2
20260507152831 7 360 3.2 0.0 0.00 0.00 0.00 63 1012.3
20260507152330 7 360 0.0 0.0 0.00 0.00 0.00 63 1012.3
20260507151830 7 360 4.8 0.0 0.00 0.00 0.00 64 1012.3
20260507151331 7 360 19.3 0.0 0.00 0.00 0.00 67 1012.3
20260507150831 7 360 3.2 0.0 0.00 0.00 0.00 68 1012.2
20260507150330 7 360 0.0 0.0 0.00 0.00 0.00 70 1012.3
20260507145831 6 360 3.2 0.0 0.00 0.00 0.00 69 1012.3
20260507145331 6 360 4.8 0.0 0.00 0.00 0.00 70 1012.3
20260507144830 6 360 6.4 0.0 0.00 0.00 0.00 70 1012.3
20260507144330 6 360 1.6 0.0 0.00 0.00 0.00 72 1012.2
20260507143831 6 360 12.9 0.0 0.00 0.00 0.00 71 1012.2
20260507143330 6 360 4.8 0.0 0.00 0.00 0.00 73 1012.2
20260507142831 6 360 3.2 0.0 0.00 0.00 0.00 74 1012.2
20260507141831 6 360 4.8 0.0 0.00 0.00 0.00 76 1012.3
20260507141331 6 188 6.4 0.0 0.00 0.00 0.00 77 1012.3
20260507140830 5 360 0.0 0.0 0.00 0.00 0.00 77 1012.4
20260507135827 5 360 0.0 0.0 0.00 0.00 0.00 80 1012.3
20260507135327 5 360 0.0 0.0 0.00 0.00 0.00 80 1012.2
20260507134327 5 360 3.2 0.0 0.00 0.00 0.00 79 1012.3
20260507133827 5 360 0.0 0.0 0.00 0.00 0.00 80 1012.3
20260507133327 5 360 0.0 0.0 0.00 0.00 0.00 79 1012.2
20260507132827 5 360 0.0 0.0 0.00 0.00 0.00 79 1012.2
20260507132327 5 360 0.0 0.0 0.00 0.00 0.00 80 1012.2
20260507131827 5 360 0.0 0.0 0.00 0.00 0.00 81 1012.1
20260507131327 5 360 0.0 0.0 0.00 0.00 0.00 82 1012.0
20260507130827 5 360 0.0 0.0 0.00 0.00 0.00 82 1011.9
20260507130327 4 360 0.0 0.0 0.00 0.00 0.00 83 1011.9
20260507125827 4 360 0.0 0.0 0.00 0.00 0.00 84 1012.0
20260507125327 4 360 0.0 0.0 0.00 0.00 0.00 85 1012.0
20260507124827 4 360 0.0 0.0 0.00 0.00 0.00 85 1012.0
20260507123327 3 360 0.0 0.0 0.00 0.00 0.00 87 1011.9
20260507122827 3 360 0.0 0.0 0.00 0.00 0.00 88 1012.0
20260507122327 3 360 0.0 0.0 0.00 0.00 0.00 90 1011.9
20260507121327 2 360 0.0 0.0 0.00 0.00 0.00 93 1011.9
20260507115827 1 360 0.0 0.0 0.00 0.00 0.00 94 1011.8
20260507115327 1 360 0.0 0.0 0.00 0.00 0.00 94 1011.7
20260507114827 1 360 0.0 0.0 0.00 0.00 0.00 94 1011.5
20260507113327 0 360 0.0 0.0 0.00 0.00 0.00 94 1011.5
20260507112827 0 360 0.0 0.0 0.00 0.00 0.00 94 1011.3
20260507112327 0 360 0.0 0.0 0.00 0.00 0.00 94 1011.3
20260507111827 0 360 0.0 0.0 0.00 0.00 0.00 94 1011.2
20260507110827 0 360 0.0 0.0 0.00 0.00 0.00 94 1011.1
20260507110327 0 360 0.0 0.0 0.00 0.00 0.00 94 1011.1
20260507105827 0 360 0.0 0.0 0.00 0.00 0.00 94 1011.1
20260507104827 0 360 0.0 0.0 0.00 0.00 0.00 94 1011.1
20260507104327 0 360 0.0 0.0 0.00 0.00 0.00 93 1011.0
20260507103327 0 360 0.0 0.0 0.00 0.00 0.00 93 1011.0
20260507102827 0 360 0.0 0.0 0.00 0.00 0.00 93 1011.0
20260507102327 0 360 0.0 0.0 0.00 0.00 0.00 93 1010.9
20260507101827 0 360 0.0 0.0 0.00 0.00 0.00 93 1010.9
20260507101327 0 360 0.0 0.0 0.00 0.00 0.00 93 1011.0
20260507095843 0 360 0.0 0.0 0.00 0.00 0.00 93 1011.0
20260507095343 0 360 0.0 0.0 0.00 0.00 0.00 93 1011.2
20260507094843 0 360 0.0 0.0 0.00 0.00 0.00 93 1011.2
20260507094343 0 360 0.0 0.0 0.00 0.00 0.00 93 1011.2
20260507093843 0 360 0.0 0.0 0.00 0.00 0.00 93 1011.2
20260507092843 0 360 0.0 0.0 0.00 0.00 0.00 93 1011.2
20260507092343 0 360 0.0 0.0 0.00 0.00 0.00 92 1011.3
20260507091843 0 360 0.0 0.0 0.00 0.00 0.00 92 1011.3
20260507091343 0 360 0.0 0.0 0.00 0.00 0.00 93 1011.4
20260507090843 0 360 0.0 0.0 0.00 0.00 0.00 92 1011.4
20260507085843 0 360 0.0 0.0 0.00 0.00 0.00 92 1011.4
20260507085343 0 360 0.0 0.0 0.00 0.00 0.00 92 1011.6
20260507084843 0 360 0.0 0.0 0.00 0.00 0.00 92 1011.6
20260507084343 0 360 0.0 0.0 0.00 0.00 0.00 92 1011.7
20260507083842 0 360 0.0 0.0 0.00 0.00 0.00 92 1011.7
20260507083342 0 360 0.0 0.0 0.00 0.00 0.00 92 1011.8
20260507082842 0 360 0.0 0.0 0.00 0.00 0.00 92 1011.8
20260507082343 0 360 0.0 0.0 0.00 0.00 0.00 92 1011.8
20260507081843 0 360 0.0 0.0 0.00 0.00 0.00 92 1011.8
20260507081343 0 360 0.0 0.0 0.00 0.00 0.00 92 1011.8
20260507080843 0 360 0.0 0.0 0.00 0.00 0.00 92 1011.8
20260507080343 0 360 0.0 0.0 0.00 0.00 0.00 92 1011.7
20260507075843 0 360 0.0 0.0 0.00 0.00 0.00 92 1011.7
20260507075343 0 360 0.0 0.0 0.00 0.00 0.00 92 1011.8
20260507074843 0 360 0.0 0.0 0.00 0.00 0.00 92 1011.8
20260507074343 0 360 0.0 0.0 0.00 0.00 0.00 92 1011.8
20260507073842 0 360 0.0 0.0 0.00 0.00 0.00 92 1011.8
20260507073343 0 360 0.0 0.0 0.00 0.00 0.00 92 1011.9
20260507072842 0 360 0.0 0.0 0.00 0.00 0.00 92 1011.8
20260507072343 0 360 0.0 0.0 0.00 0.00 0.00 92 1011.9
20260507071843 0 360 0.0 0.0 0.00 0.00 0.00 92 1011.9
20260507071343 0 360 0.0 0.0 0.00 0.00 0.00 92 1011.9
20260507065843 0 360 0.0 0.0 0.00 0.00 0.00 92 1011.9
20260507065343 0 360 0.0 0.0 0.00 0.00 0.00 92 1012.1
20260507063843 0 360 0.0 0.0 0.00 0.00 0.00 91 1012.2
20260507063342 0 360 0.0 0.0 0.00 0.00 0.00 91 1012.3
20260507062343 0 360 0.0 0.0 0.00 0.00 0.00 91 1012.4
20260507061342 -1 360 0.0 0.0 0.00 0.00 0.00 90 1012.4
20260507060842 -1 360 0.0 0.0 0.00 0.00 0.00 90 1012.5
20260507055825 0 360 0.0 0.0 0.00 0.00 0.00 89 1012.5
20260507054825 0 360 0.0 0.0 0.00 0.00 0.00 88 1012.5
20260507054326 0 360 0.0 0.0 0.00 0.00 0.00 87 1012.6
20260507053325 0 360 0.0 0.0 0.00 0.00 0.00 87 1012.7
20260507052825 0 360 0.0 0.0 0.00 0.00 0.00 86 1012.7
20260507052326 0 360 0.0 0.0 0.00 0.00 0.00 84 1012.8
20260507051825 0 360 0.0 0.0 0.00 0.00 0.00 84 1012.8
20260507051325 0 360 0.0 0.0 0.00 0.00 0.00 84 1012.9
20260507050825 0 360 0.0 0.0 0.00 0.00 0.00 84 1012.9
20260507050325 1 360 0.0 0.0 0.00 0.00 0.00 83 1013.0
20260507045825 1 360 0.0 0.0 0.00 0.00 0.00 83 1012.9
20260507045326 1 360 0.0 0.0 0.00 0.00 0.00 83 1012.9
20260507044825 1 360 0.0 0.0 0.00 0.00 0.00 83 1013.0
20260507044325 1 360 0.0 0.0 0.00 0.00 0.00 83 1013.0
20260507043825 1 360 0.0 0.0 0.00 0.00 0.00 83 1013.0
20260507043326 1 360 0.0 0.0 0.00 0.00 0.00 83 1013.0
20260507042825 1 360 0.0 0.0 0.00 0.00 0.00 83 1013.0
20260507042326 1 360 0.0 0.0 0.00 0.00 0.00 83 1013.1
20260507041825 2 360 0.0 0.0 0.00 0.00 0.00 83 1013.0
20260507041325 2 360 0.0 0.0 0.00 0.00 0.00 82 1012.9
20260507040825 2 360 0.0 0.0 0.00 0.00 0.00 82 1013.0
20260507040325 2 360 0.0 0.0 0.00 0.00 0.00 81 1012.9
20260507035825 2 360 0.0 0.0 0.00 0.00 0.00 81 1013.0
20260507035326 2 360 0.0 0.0 0.00 0.00 0.00 81 1012.9
20260507034825 2 360 0.0 0.0 0.00 0.00 0.00 80 1012.9
20260507034325 2 360 0.0 0.0 0.00 0.00 0.00 80 1013.0
20260507033826 2 360 0.0 0.0 0.00 0.00 0.00 80 1012.9
20260507033325 2 360 0.0 0.0 0.00 0.00 0.00 79 1013.0
20260507032825 2 360 0.0 0.0 0.00 0.00 0.00 80 1013.0
20260507032325 2 360 0.0 0.0 0.00 0.00 0.00 79 1013.0
20260507031826 2 360 0.0 0.0 0.00 0.00 0.00 79 1013.1
20260507031325 3 360 0.0 0.0 0.00 0.00 0.00 78 1013.0
20260507030826 3 360 0.0 0.0 0.00 0.00 0.00 78 1013.1
20260507030325 3 360 0.0 0.0 0.00 0.00 0.00 77 1013.0
20260507025826 3 360 0.0 0.0 0.00 0.00 0.00 77 1013.1
20260507025325 3 360 0.0 0.0 0.00 0.00 0.00 76 1013.1
20260507024825 3 360 0.0 0.0 0.00 0.00 0.00 76 1013.1
20260507024325 3 360 0.0 0.0 0.00 0.00 0.00 76 1013.0
20260507023825 3 360 0.0 0.0 0.00 0.00 0.00 76 1013.0
20260507023325 3 360 0.0 0.0 0.00 0.00 0.00 76 1013.0
20260507022825 3 360 0.0 0.0 0.00 0.00 0.00 76 1013.0
20260507021826 3 360 0.0 0.0 0.00 0.00 0.00 74 1012.9
20260507021325 3 360 0.0 0.0 0.00 0.00 0.00 74 1012.9
20260507015838 3 360 0.0 0.0 0.00 0.00 0.00 73 1012.9
20260507015339 3 360 0.0 0.0 0.00 0.00 0.00 73 1012.9
20260507014838 3 360 0.0 0.0 0.00 0.00 0.00 72 1012.9
20260507014338 3 360 0.0 0.0 0.00 0.00 0.00 72 1012.8
20260507013838 3 360 0.0 0.0 0.00 0.00 0.00 72 1012.8
20260507013338 3 360 0.0 0.0 0.00 0.00 0.00 71 1012.8
20260507012838 3 360 0.0 0.0 0.00 0.00 0.00 71 1012.7
20260507012339 3 360 0.0 0.0 0.00 0.00 0.00 69 1012.6
20260507011839 4 360 0.0 0.0 0.00 0.00 0.00 68 1012.7
20260507005838 4 360 0.0 0.0 0.00 0.00 0.00 67 1012.7
20260507005338 4 360 0.0 0.0 0.00 0.00 0.00 67 1012.6
20260507004838 4 360 0.0 0.0 0.00 0.00 0.00 65 1012.6
20260507004338 5 360 0.0 0.0 0.00 0.00 0.00 63 1012.6
20260507003339 5 360 0.0 0.0 0.00 0.00 0.00 64 1012.5
20260507002838 5 360 0.0 0.0 0.00 0.00 0.00 63 1012.5
20260507002338 5 360 0.0 0.0 0.00 0.00 0.00 62 1012.5
20260507001838 5 360 0.0 0.0 0.00 0.00 0.00 63 1012.4
20260507001338 5 360 0.0 0.0 0.00 0.00 0.00 62 1012.4
20260507000838 5 360 0.0 0.0 0.00 0.00 0.00 61 1012.4
20260507000338 5 360 0.0 0.0 0.00 0.00 0.00 61 1012.4
20260506235838 5 360 0.0 0.0 0.00 0.00 0.00 61 1012.3
20260506235338 5 360 0.0 0.0 0.00 0.00 0.00 60 1012.2
20260506234338 5 360 0.0 0.0 0.00 0.00 0.00 59 1012.3
20260506233838 5 360 0.0 0.0 0.00 0.00 0.00 59 1012.3
20260506232838 5 360 0.0 0.0 0.00 0.00 0.00 59 1012.4
20260506232338 5 360 0.0 0.0 0.00 0.00 0.00 58 1012.4
20260506231838 5 360 0.0 0.0 0.00 0.00 0.00 59 1012.4
20260506230838 5 360 0.0 0.0 0.00 0.00 0.00 57 1012.4
20260506225838 5 360 0.0 0.0 0.00 0.00 0.00 57 1012.4
20260506225338 5 360 0.0 0.0 0.00 0.00 0.00 56 1012.1
20260506224838 5 360 0.0 0.0 0.00 0.00 0.00 56 1012.2
20260506224338 5 360 0.0 0.0 0.00 0.00 0.00 57 1012.2
20260506223838 5 360 0.0 0.0 0.00 0.00 0.00 56 1012.1
20260506222338 5 360 0.0 0.0 0.00 0.00 0.00 56 1012.1
20260506221838 6 360 0.0 0.0 0.00 0.00 0.00 53 1012.2